TimeEST,TemperatureF,Dew PointF,Humidity,Sea Level PressureIn,VisibilityMPH,Wind Direction,Wind SpeedMPH,Gust SpeedMPH,PrecipitationIn,Events,Conditions,WindDirDegrees,DateUTC
12:53 AM,63.0,61.0,93,30.15,10.0,WNW,6.9,-,N/A,,Scattered Clouds,300,2012-11-29 05:53:00
1:53 AM,61.0,59.0,93,30.15,10.0,WNW,5.8,-,N/A,,Scattered Clouds,300,2012-11-29 06:53:00
2:53 AM,69.1,59.0,70,30.15,10.0,NNE,10.4,-,N/A,,Mostly Cloudy,20,2012-11-29 07:53:00
3:53 AM,62.1,60.1,93,30.15,10.0,NW,5.8,-,N/A,,Mostly Cloudy,320,2012-11-29 08:53:00
4:53 AM,62.1,59.0,90,30.15,10.0,NW,6.9,-,N/A,,Mostly Cloudy,320,2012-11-29 09:53:00
5:53 AM,70.0,60.1,71,30.17,10.0,NE,12.7,17.3,N/A,,Mostly Cloudy,50,2012-11-29 10:53:00
6:11 AM,73.4,60.8,65,30.16,10.0,NE,16.1,23.0,N/A,,Overcast,40,2012-11-29 11:11:00
6:53 AM,73.0,59.0,61,30.18,10.0,ENE,11.5,-,0.00,,Mostly Cloudy,60,2012-11-29 11:53:00
7:53 AM,75.0,57.9,55,30.19,10.0,ENE,9.2,20.7,N/A,,Mostly Cloudy,60,2012-11-29 12:53:00
8:53 AM,75.9,59.0,56,30.21,10.0,ENE,8.1,-,N/A,,Mostly Cloudy,60,2012-11-29 13:53:00
9:53 AM,78.1,57.9,50,30.22,10.0,ENE,15.0,23.0,N/A,,Mostly Cloudy,70,2012-11-29 14:53:00
10:53 AM,78.1,60.1,54,30.22,10.0,East,17.3,-,N/A,,Mostly Cloudy,80,2012-11-29 15:53:00
11:53 AM,79.0,61.0,54,30.21,10.0,East,17.3,-,N/A,,Mostly Cloudy,80,2012-11-29 16:53:00
12:53 PM,78.1,61.0,56,30.19,10.0,NE,17.3,24.2,N/A,,Mostly Cloudy,40,2012-11-29 17:53:00
1:53 PM,75.9,61.0,60,30.17,10.0,ENE,16.1,21.9,N/A,,Mostly Cloudy,60,2012-11-29 18:53:00
2:49 PM,77.0,62.6,61,30.17,10.0,ENE,16.1,-,N/A,,Mostly Cloudy,60,2012-11-29 19:49:00
2:53 PM,75.9,62.1,62,30.17,10.0,ENE,18.4,24.2,N/A,,Mostly Cloudy,60,2012-11-29 19:53:00
3:53 PM,75.0,62.1,64,30.17,10.0,NE,13.8,-,N/A,,Mostly Cloudy,40,2012-11-29 20:53:00
4:53 PM,73.0,63.0,71,30.17,10.0,NE,13.8,-,0.00,,Mostly Cloudy,40,2012-11-29 21:53:00
5:53 PM,70.0,64.9,84,30.18,10.0,North,5.8,-,0.00,Rain,Light Rain,10,2012-11-29 22:53:00
6:53 PM,71.1,64.9,81,30.19,10.0,East,11.5,-,0.09,,Mostly Cloudy,80,2012-11-29 23:53:00
7:53 PM,72.0,64.0,76,30.19,10.0,ENE,15.0,21.9,0.08,,Mostly Cloudy,70,2012-11-30 00:53:00
8:53 PM,73.0,62.1,68,30.20,10.0,ENE,17.3,-,0.00,,Mostly Cloudy,70,2012-11-30 01:53:00
9:42 PM,73.4,60.8,65,30.21,10.0,ENE,17.3,25.3,N/A,,Mostly Cloudy,70,2012-11-30 02:42:00
9:53 PM,73.0,62.1,68,30.20,10.0,East,15.0,-,N/A,,Mostly Cloudy,80,2012-11-30 02:53:00
10:53 PM,72.0,59.0,64,30.21,10.0,ENE,16.1,-,N/A,,Scattered Clouds,70,2012-11-30 03:53:00
11:53 PM,73.0,60.1,64,30.19,10.0,East,17.3,21.9,N/A,,Mostly Cloudy,80,2012-11-30 04:53:00